Home > Time Zones > World Clock > Weather > U.S.A. > Mesa > Past weeks

Flag for U.S.A. Weather past 2 weeks in Mesa, Arizona, U.S.A.

Now
81 °F

Clear.


Feels Like: 80 °F
Forecast: 82 / 108 °F
Wind: 9 mph from South

Location: Williams Gateway Airport

Current Time: Aug 5, 2015 at 3:33:20 AM

Latest Report: Aug 5, 2015 at 3:15 AM


Visibility: 10 mi

Pressure: 29.88 "Hg

Humidity: 34%

Dew point: 50 °F

Location of MesaLocation

Historic Weather in Mesa — Graph

°F

Mesa temperature yesterday

Maximum temperature yesterday: 108 °F (at 3:48 PM)
Minimum temperature yesterday: 79 °F (at 3:55 AM)
Average temperature yesterday: 91 °F

Past Weeks' High & Low Weather Summary

 TemperatureHumidityPressure
High108 °F (Aug 4, 3:48 PM)79% (Jul 31, 7:55 PM)30.07 "Hg (Jul 31, 7:55 PM)
Low75 °F (Jul 22, 5:50 AM)8% (Jul 25, 5:47 PM)29.74 "Hg (Jul 21, 6:47 PM)
Average89 °F34%29.90 "Hg
* Reported Jul 21 2:15 AM — Aug 5 2:15 AM, Mesa, Weather by CustomWeather, © 2015

Note: Actual official high and low records may vary slightly from our data, if they occured in-between our weather recording intervals... More about our weather records

Advertising

Mesa weather history for previous 24 hours

 ConditionsComfort  
Time TempWeatherWind HumidityBarometerVisibility
2:15 AM
Wed, Aug 5
82 °FClear.7 mph32%29.87 "Hg10 mi
1:55 AM82 °FClear.6 mph28%29.87 "Hg10 mi
1:35 AM82 °FClear.5 mph28%29.87 "Hg10 mi
1:15 AM82 °FClear.3 mph30%29.87 "Hg10 mi
12:55 AM84 °FClear.5 mph25%29.87 "Hg10 mi
12:35 AM86 °FClear.5 mph22%29.87 "Hg10 mi
12:15 AM86 °FClear.6 mph22%29.87 "Hg10 mi
11:47 PM
Tue, Aug 4
88 °FClear.3 mph24%29.87 "Hg20 mi
10:50 PM91 °FClear.No wind18%29.86 "Hg20 mi
9:47 PM97 °FClear.No wind17%29.86 "Hg20 mi
8:51 PM99 °FClear.3 mph16%29.85 "Hg20 mi
7:48 PM100 °FClear.7 mph15%29.83 "Hg20 mi
6:47 PM106 °FSunny.6 mph12%29.82 "Hg45 mi
5:47 PM108 °FSunny.13 mph11%29.81 "Hg45 mi
4:49 PM106 °FSunny.7 mph14%29.82 "Hg45 mi
3:48 PM108 °FSunny.9 mph15%29.85 "Hg45 mi
2:49 PM106 °FSunny.10 mph15%29.86 "HgN/A
1:47 PM106 °FSunny.6 mph15%29.88 "HgN/A
12:47 PM104 °FPassing clouds.6 mph16%29.90 "Hg45 mi
11:50 AM102 °FPassing clouds.9 mph18%29.91 "Hg35 mi
10:47 AM99 °FSunny.6 mph19%29.92 "Hg45 mi
9:47 AM97 °FSunny.5 mph22%29.92 "Hg45 mi
8:47 AM93 °FSunny.5 mph28%29.92 "Hg45 mi
7:47 AM90 °FSunny.8 mph29%29.92 "Hg45 mi
6:47 AM82 °FSunny.7 mph35%29.90 "Hg45 mi
5:47 AM79 °FSunny.5 mph42%29.89 "Hg45 mi
4:59 AM81 °FClear.7 mph39%29.88 "Hg20 mi
4:35 AM79 °FClear.6 mph39%29.87 "Hg10 mi
4:15 AM79 °FClear.7 mph39%29.86 "Hg10 mi
3:55 AM79 °FClear.9 mph39%29.86 "Hg10 mi
3:35 AM81 °FClear.No wind37%29.85 "Hg10 mi
3:15 AM86 °FClear.3 mph25%29.85 "Hg10 mi
Weather by CustomWeather, © 2015

See weather overviewHow to use our weather pages